| time (UTC) | temp F | wind direction | speed MPH | gust MPH | rain 1hr in | rain 24hr in | rain mn in | humidity % | barometer mb |
| 20260503013104 | 81 | 353 | 4.0 | 8.0 | 0.00 | 0.00 | 0.00 | 26 | 1010.5 |
| 20260503012604 | 81 | 340 | 3.0 | 10.0 | 0.00 | 0.00 | 0.00 | 28 | 1010.4 |
| 20260503012104 | 81 | 294 | 3.0 | 12.0 | 0.00 | 0.00 | 0.00 | 27 | 1010.3 |
| 20260503011604 | 81 | 256 | 5.0 | 12.0 | 0.00 | 0.00 | 0.00 | 28 | 1010.2 |
| 20260503011104 | 81 | 315 | 3.0 | 8.0 | 0.00 | 0.00 | 0.00 | 28 | 1010.3 |
| 20260503010607 | 81 | 260 | 5.0 | 9.0 | 0.00 | 0.00 | 0.00 | 29 | 1010.2 |
| 20260503005603 | 82 | 284 | 6.0 | 9.0 | 0.00 | 0.00 | 0.00 | 30 | 1010.1 |
| 20260503005104 | 82 | 255 | 5.0 | 10.0 | 0.00 | 0.00 | 0.00 | 31 | 1010.1 |
| 20260503004604 | 82 | 259 | 5.0 | 12.0 | 0.00 | 0.00 | 0.00 | 30 | 1010.1 |
| 20260503004104 | 82 | 282 | 5.0 | 12.0 | 0.00 | 0.00 | 0.00 | 30 | 1010.1 |
| 20260503003604 | 82 | 267 | 6.0 | 12.0 | 0.00 | 0.00 | 0.00 | 30 | 1010.0 |
| 20260503003105 | 83 | 320 | 6.0 | 12.0 | 0.00 | 0.00 | 0.00 | 31 | 1010.0 |
| 20260503002604 | 83 | 280 | 6.0 | 12.0 | 0.00 | 0.00 | 0.00 | 30 | 1010.0 |
| 20260503002104 | 83 | 285 | 5.0 | 12.0 | 0.00 | 0.00 | 0.00 | 29 | 1010.0 |
| 20260503001604 | 84 | 273 | 6.0 | 12.0 | 0.00 | 0.00 | 0.00 | 29 | 1010.0 |
| 20260503001103 | 84 | 289 | 6.0 | 10.0 | 0.00 | 0.00 | 0.00 | 28 | 1009.9 |
| 20260503000105 | 84 | 306 | 6.0 | 12.0 | 0.00 | 0.00 | 0.00 | 27 | 1009.9 |
| 20260502235604 | 85 | 294 | 5.0 | 10.0 | 0.00 | 0.00 | 0.00 | 23 | 1009.9 |
| 20260502234604 | 85 | 272 | 7.0 | 10.0 | 0.00 | 0.00 | 0.00 | 22 | 1009.9 |
| 20260502233604 | 85 | 281 | 6.0 | 10.0 | 0.00 | 0.00 | 0.00 | 23 | 1009.7 |
| 20260502233104 | 85 | 292 | 6.0 | 12.0 | 0.00 | 0.00 | 0.00 | 22 | 1010.0 |
| 20260502232105 | 85 | 306 | 6.0 | 12.0 | 0.00 | 0.00 | 0.00 | 24 | 1010.0 |
| 20260502231604 | 85 | 286 | 5.0 | 12.0 | 0.00 | 0.00 | 0.00 | 23 | 1010.0 |
| 20260502231104 | 85 | 299 | 5.0 | 12.0 | 0.00 | 0.00 | 0.00 | 23 | 1010.0 |
| 20260502230607 | 85 | 282 | 6.0 | 14.0 | 0.00 | 0.00 | 0.00 | 24 | 1010.0 |
| 20260502230104 | 85 | 294 | 6.0 | 14.0 | 0.00 | 0.00 | 0.00 | 24 | 1010.0 |
| 20260502225104 | 86 | 292 | 6.0 | 10.0 | 0.00 | 0.00 | 0.00 | 22 | 1010.1 |
| 20260502224604 | 86 | 340 | 5.0 | 12.0 | 0.00 | 0.00 | 0.00 | 23 | 1010.1 |
| 20260502224104 | 85 | 272 | 6.0 | 12.0 | 0.00 | 0.00 | 0.00 | 21 | 1010.2 |
| 20260502222605 | 84 | 302 | 6.0 | 12.0 | 0.00 | 0.00 | 0.00 | 24 | 1010.6 |
| 20260502222105 | 84 | 292 | 6.0 | 12.0 | 0.00 | 0.00 | 0.00 | 24 | 1010.6 |
| 20260502221604 | 85 | 286 | 7.0 | 12.0 | 0.00 | 0.00 | 0.00 | 24 | 1010.6 |
| 20260502221104 | 85 | 314 | 7.0 | 12.0 | 0.00 | 0.00 | 0.00 | 23 | 1010.7 |
| 20260502220606 | 85 | 296 | 7.0 | 13.0 | 0.00 | 0.00 | 0.00 | 24 | 1010.7 |
| 20260502215604 | 84 | 296 | 7.0 | 13.0 | 0.00 | 0.00 | 0.00 | 22 | 1011.1 |
| 20260502215103 | 84 | 307 | 7.0 | 12.0 | 0.00 | 0.00 | 0.00 | 23 | 1011.1 |
| 20260502214605 | 84 | 289 | 6.0 | 12.0 | 0.00 | 0.00 | 0.00 | 25 | 1011.1 |
| 20260502214105 | 84 | 276 | 6.0 | 12.0 | 0.00 | 0.00 | 0.00 | 26 | 1011.0 |
| 20260502213604 | 84 | 272 | 6.0 | 12.0 | 0.00 | 0.00 | 0.00 | 27 | 1011.1 |
| 20260502213103 | 84 | 285 | 6.0 | 12.0 | 0.00 | 0.00 | 0.00 | 28 | 1011.1 |
| 20260502212605 | 84 | 274 | 7.0 | 12.0 | 0.00 | 0.00 | 0.00 | 29 | 1011.1 |
| 20260502211604 | 83 | 283 | 6.0 | 9.0 | 0.00 | 0.00 | 0.00 | 30 | 1011.2 |
| 20260502211104 | 83 | 272 | 6.0 | 9.0 | 0.00 | 0.00 | 0.00 | 29 | 1011.1 |
| 20260502210606 | 83 | 274 | 5.0 | 8.0 | 0.00 | 0.00 | 0.00 | 28 | 1011.1 |
| 20260502210104 | 83 | 290 | 5.0 | 8.0 | 0.00 | 0.00 | 0.00 | 28 | 1011.3 |
| 20260502205604 | 82 | 299 | 5.0 | 9.0 | 0.00 | 0.00 | 0.00 | 31 | 1011.3 |
| 20260502205104 | 82 | 309 | 5.0 | 9.0 | 0.00 | 0.00 | 0.00 | 31 | 1011.5 |
| 20260502204604 | 82 | 281 | 5.0 | 9.0 | 0.00 | 0.00 | 0.00 | 33 | 1011.6 |
| 20260502204104 | 81 | 269 | 5.0 | 8.0 | 0.00 | 0.00 | 0.00 | 32 | 1011.6 |
| 20260502203604 | 81 | 306 | 5.0 | 8.0 | 0.00 | 0.00 | 0.00 | 34 | 1011.7 |
| 20260502203104 | 80 | 279 | 3.0 | 8.0 | 0.00 | 0.00 | 0.00 | 35 | 1011.6 |
| 20260502202604 | 80 | 272 | 5.0 | 8.0 | 0.00 | 0.00 | 0.00 | 34 | 1011.6 |
| 20260502202104 | 80 | 274 | 5.0 | 10.0 | 0.00 | 0.00 | 0.00 | 35 | 1011.7 |
| 20260502201604 | 80 | 238 | 5.0 | 10.0 | 0.00 | 0.00 | 0.00 | 36 | 1011.9 |
| 20260502201104 | 80 | 289 | 5.0 | 10.0 | 0.00 | 0.00 | 0.00 | 36 | 1012.0 |
| 20260502200606 | 80 | 277 | 6.0 | 10.0 | 0.00 | 0.00 | 0.00 | 37 | 1012.0 |
| 20260502200105 | 80 | 274 | 5.0 | 8.0 | 0.00 | 0.00 | 0.00 | 36 | 1012.0 |
| 20260502195604 | 80 | 334 | 3.0 | 8.0 | 0.00 | 0.00 | 0.00 | 35 | 1012.1 |
| 20260502195104 | 80 | 262 | 5.0 | 8.0 | 0.00 | 0.00 | 0.00 | 35 | 1012.2 |
| 20260502194603 | 79 | 346 | 3.0 | 7.0 | 0.00 | 0.00 | 0.00 | 35 | 1012.2 |
| 20260502193604 | 79 | 299 | 5.0 | 7.0 | 0.00 | 0.00 | 0.00 | 36 | 1012.5 |
| 20260502193104 | 78 | 261 | 3.0 | 7.0 | 0.00 | 0.00 | 0.00 | 33 | 1012.4 |
| 20260502192604 | 78 | 255 | 4.0 | 8.0 | 0.00 | 0.00 | 0.00 | 33 | 1012.5 |
| 20260502192104 | 78 | 304 | 4.0 | 8.0 | 0.00 | 0.00 | 0.00 | 33 | 1012.6 |
| 20260502191604 | 78 | 297 | 3.0 | 7.0 | 0.00 | 0.00 | 0.00 | 33 | 1012.7 |
| 20260502191105 | 77 | 301 | 5.0 | 7.0 | 0.00 | 0.00 | 0.00 | 34 | 1012.8 |
| 20260502190604 | 77 | 266 | 3.0 | 6.0 | 0.00 | 0.00 | 0.00 | 33 | 1012.9 |
| 20260502190105 | 76 | 305 | 3.0 | 7.0 | 0.00 | 0.00 | 0.00 | 34 | 1013.0 |
| 20260502185604 | 75 | 345 | 3.0 | 8.0 | 0.00 | 0.00 | 0.00 | 34 | 1013.0 |
| 20260502185104 | 75 | 308 | 5.0 | 8.0 | 0.00 | 0.00 | 0.00 | 37 | 1013.0 |
| 20260502184603 | 75 | 277 | 4.0 | 7.0 | 0.00 | 0.00 | 0.00 | 37 | 1013.1 |
| 20260502184104 | 74 | 302 | 3.0 | 7.0 | 0.00 | 0.00 | 0.00 | 39 | 1013.2 |
| 20260502183605 | 74 | 311 | 2.0 | 7.0 | 0.00 | 0.00 | 0.00 | 42 | 1013.4 |
| 20260502183104 | 73 | 280 | 4.0 | 9.0 | 0.00 | 0.00 | 0.00 | 43 | 1013.5 |
| 20260502182604 | 73 | 307 | 4.0 | 9.0 | 0.00 | 0.00 | 0.00 | 43 | 1013.4 |
| 20260502182104 | 73 | 283 | 3.0 | 7.0 | 0.00 | 0.00 | 0.00 | 45 | 1013.5 |
| 20260502181604 | 73 | 290 | 5.0 | 7.0 | 0.00 | 0.00 | 0.00 | 44 | 1013.5 |
| 20260502180604 | 72 | 289 | 3.0 | 6.0 | 0.00 | 0.00 | 0.00 | 44 | 1013.5 |
| 20260502180107 | 71 | 310 | 2.0 | 6.0 | 0.00 | 0.00 | 0.00 | 45 | 1013.5 |
| 20260502170104 | 65 | 260 | 3.0 | 7.0 | 0.00 | 0.00 | 0.00 | 65 | 1013.6 |
| 20260502163604 | 62 | 261 | 3.0 | 5.0 | 0.00 | 0.00 | 0.00 | 73 | 1013.8 |
| 20260502163104 | 62 | 260 | 1.0 | 5.0 | 0.00 | 0.00 | 0.00 | 75 | 1013.8 |
| 20260502162605 | 62 | 291 | 2.0 | 3.0 | 0.00 | 0.00 | 0.00 | 76 | 1014.0 |
| 20260502162104 | 61 | 290 | 2.0 | 3.0 | 0.00 | 0.00 | 0.00 | 76 | 1014.1 |
| 20260502161604 | 60 | 290 | 2.0 | 6.0 | 0.00 | 0.00 | 0.00 | 77 | 1014.1 |
| 20260502161107 | 60 | 290 | 1.0 | 6.0 | 0.00 | 0.00 | 0.00 | 77 | 1014.2 |
| 20260502160604 | 60 | 280 | 3.0 | 6.0 | 0.00 | 0.00 | 0.00 | 77 | 1014.2 |
| 20260502160108 | 60 | 269 | 1.0 | 6.0 | 0.00 | 0.00 | 0.00 | 79 | 1014.2 |
| 20260502152104 | 58 | 39 | 2.0 | 3.0 | 0.00 | 0.00 | 0.00 | 78 | 1014.1 |
| 20260502151604 | 58 | 52 | 1.0 | 3.0 | 0.00 | 0.00 | 0.00 | 78 | 1014.1 |
| 20260502151104 | 57 | 69 | 1.0 | 3.0 | 0.00 | 0.00 | 0.00 | 79 | 1014.1 |
| 20260502150603 | 57 | 69 | 1.0 | 3.0 | 0.00 | 0.00 | 0.00 | 78 | 1014.1 |
| 20260502150104 | 57 | 69 | 2.0 | 3.0 | 0.00 | 0.00 | 0.00 | 78 | 1014.2 |
| 20260502140104 | 54 | 70 | 0.0 | 1.0 | 0.00 | 0.00 | 0.00 | 73 | 1014.1 |
| 20260502130606 | 56 | 56 | 0.0 | 0.0 | 0.00 | 0.00 | 0.00 | 71 | 1013.1 |
| 20260502130107 | 56 | 56 | 0.0 | 0.0 | 0.00 | 0.00 | 0.00 | 70 | 1013.2 |
| 20260502123604 | 56 | 56 | 0.0 | 2.0 | 0.00 | 0.00 | 0.00 | 69 | 1012.8 |
| 20260502123105 | 56 | 56 | 0.0 | 2.0 | 0.00 | 0.00 | 0.00 | 69 | 1012.8 |
| 20260502122104 | 56 | 56 | 0.0 | 1.0 | 0.00 | 0.00 | 0.00 | 69 | 1012.7 |
| 20260502121604 | 56 | 53 | 0.0 | 1.0 | 0.00 | 0.00 | 0.00 | 70 | 1012.8 |
| 20260502121106 | 56 | 46 | 0.0 | 1.0 | 0.00 | 0.00 | 0.00 | 69 | 1012.8 |
| 20260502120604 | 57 | 46 | 0.0 | 1.0 | 0.00 | 0.00 | 0.00 | 70 | 1012.8 |
| 20260502120107 | 57 | 46 | 0.0 | 1.0 | 0.00 | 0.00 | 0.00 | 69 | 1012.7 |
| 20260502115604 | 57 | 46 | 0.0 | 1.0 | 0.00 | 0.00 | 0.00 | 67 | 1012.7 |
| 20260502114605 | 57 | 46 | 0.0 | 0.0 | 0.00 | 0.00 | 0.00 | 59 | 1012.8 |
| 20260502113604 | 57 | 46 | 0.0 | 1.0 | 0.00 | 0.00 | 0.00 | 53 | 1012.8 |
| 20260502113104 | 57 | 45 | 0.0 | 1.0 | 0.00 | 0.00 | 0.00 | 53 | 1012.8 |
| 20260502112604 | 57 | 43 | 0.0 | 1.0 | 0.00 | 0.00 | 0.00 | 52 | 1012.8 |
| 20260502110604 | 58 | 46 | 0.0 | 0.0 | 0.00 | 0.00 | 0.00 | 53 | 1012.8 |
| 20260502110106 | 58 | 46 | 0.0 | 0.0 | 0.00 | 0.00 | 0.00 | 55 | 1012.7 |
| 20260502105604 | 58 | 46 | 0.0 | 0.0 | 0.00 | 0.00 | 0.00 | 55 | 1012.7 |
| 20260502105104 | 58 | 46 | 0.0 | 0.0 | 0.00 | 0.00 | 0.00 | 58 | 1012.7 |
| 20260502104604 | 58 | 46 | 0.0 | 1.0 | 0.00 | 0.00 | 0.00 | 60 | 1012.7 |
| 20260502104104 | 58 | 46 | 0.0 | 1.0 | 0.00 | 0.00 | 0.00 | 61 | 1012.7 |
| 20260502103604 | 58 | 43 | 0.0 | 1.0 | 0.00 | 0.00 | 0.00 | 61 | 1012.7 |
| 20260502103104 | 57 | 46 | 0.0 | 2.0 | 0.00 | 0.00 | 0.00 | 61 | 1012.7 |
| 20260502102605 | 58 | 39 | 0.0 | 3.0 | 0.00 | 0.00 | 0.00 | 61 | 1012.7 |
| 20260502102104 | 58 | 46 | 2.0 | 3.0 | 0.00 | 0.00 | 0.00 | 61 | 1012.7 |
| 20260502100604 | 57 | 32 | 1.0 | 3.0 | 0.00 | 0.00 | 0.00 | 67 | 1012.6 |
| 20260502100106 | 57 | 18 | 1.0 | 3.0 | 0.00 | 0.00 | 0.00 | 74 | 1012.6 |
| 20260502090604 | 57 | 350 | 0.0 | 1.0 | 0.00 | 0.00 | 0.00 | 79 | 1013.2 |
| 20260502090104 | 57 | 350 | 0.0 | 1.0 | 0.00 | 0.00 | 0.00 | 79 | 1013.2 |
| 20260502080107 | 59 | 349 | 0.0 | 0.0 | 0.00 | 0.00 | 0.00 | 78 | 1014.1 |
| 20260502071104 | 60 | 350 | 0.0 | 0.0 | 0.00 | 0.00 | 0.00 | 74 | 1013.9 |
| 20260502070607 | 60 | 350 | 0.0 | 1.0 | 0.00 | 0.00 | 0.00 | 74 | 1013.9 |
| 20260502070105 | 60 | 350 | 0.0 | 1.0 | 0.00 | 0.00 | 0.00 | 73 | 1014.0 |
| 20260502065604 | 60 | 349 | 0.0 | 1.0 | 0.00 | 0.00 | 0.00 | 73 | 1014.0 |
| 20260502065104 | 61 | 349 | 0.0 | 1.0 | 0.00 | 0.00 | 0.00 | 74 | 1014.1 |
| 20260502064604 | 61 | 349 | 0.0 | 1.0 | 0.00 | 0.00 | 0.00 | 74 | 1014.1 |
| 20260502063604 | 62 | 349 | 0.0 | 0.0 | 0.00 | 0.00 | 0.00 | 74 | 1014.1 |
| 20260502062105 | 62 | 349 | 0.0 | 0.0 | 0.00 | 0.00 | 0.00 | 73 | 1014.2 |
| 20260502061605 | 62 | 349 | 0.0 | 0.0 | 0.00 | 0.00 | 0.00 | 73 | 1014.1 |
| 20260502061106 | 62 | 349 | 0.0 | 0.0 | 0.00 | 0.00 | 0.00 | 73 | 1014.1 |
| 20260502060605 | 62 | 349 | 0.0 | 0.0 | 0.00 | 0.00 | 0.00 | 72 | 1014.1 |
| 20260502055606 | 62 | 349 | 0.0 | 2.0 | 0.00 | 0.00 | 0.00 | 71 | 1014.1 |
| 20260502055105 | 62 | 349 | 0.0 | 2.0 | 0.00 | 0.00 | 0.00 | 71 | 1014.2 |
| 20260502054605 | 63 | 348 | 0.0 | 2.0 | 0.00 | 0.00 | 0.00 | 70 | 1014.2 |
| 20260502054104 | 63 | 348 | 0.0 | 1.0 | 0.00 | 0.00 | 0.00 | 70 | 1014.2 |
| 20260502053604 | 63 | 348 | 0.0 | 1.0 | 0.00 | 0.00 | 0.00 | 70 | 1014.3 |
| 20260502052604 | 63 | 348 | 0.0 | 1.0 | 0.00 | 0.00 | 0.00 | 69 | 1014.4 |
| 20260502052104 | 64 | 348 | 0.0 | 1.0 | 0.00 | 0.00 | 0.00 | 69 | 1014.3 |
| 20260502051604 | 64 | 348 | 0.0 | 1.0 | 0.00 | 0.00 | 0.00 | 69 | 1014.3 |
| 20260502051105 | 64 | 348 | 0.0 | 0.0 | 0.00 | 0.00 | 0.00 | 68 | 1014.4 |
| 20260502050605 | 64 | 348 | 0.0 | 0.0 | 0.00 | 0.00 | 0.00 | 68 | 1014.4 |
| 20260502050107 | 64 | 348 | 0.0 | 0.0 | 0.00 | 0.00 | 0.00 | 67 | 1014.4 |
| 20260502045604 | 64 | 348 | 0.0 | 0.0 | 0.00 | 0.00 | 0.00 | 67 | 1014.4 |
| 20260502044604 | 65 | 348 | 0.0 | 0.0 | 0.00 | 0.00 | 0.00 | 66 | 1014.4 |
| 20260502043604 | 65 | 348 | 0.0 | 3.0 | 0.00 | 0.00 | 0.00 | 66 | 1014.1 |
| 20260502043104 | 65 | 348 | 1.0 | 3.0 | 0.00 | 0.00 | 0.00 | 65 | 1014.0 |
| 20260502042104 | 66 | 327 | 0.0 | 3.0 | 0.00 | 0.00 | 0.00 | 65 | 1013.8 |
| 20260502041604 | 66 | 327 | 2.0 | 3.0 | 0.00 | 0.00 | 0.00 | 64 | 1013.8 |
| 20260502041103 | 67 | 327 | 2.0 | 3.0 | 0.00 | 0.00 | 0.00 | 63 | 1013.8 |
| 20260502040604 | 67 | 327 | 1.0 | 3.0 | 0.00 | 0.00 | 0.00 | 63 | 1013.8 |
| 20260502040107 | 67 | 327 | 1.0 | 5.0 | 0.00 | 0.00 | 0.00 | 62 | 1013.8 |
| 20260502035604 | 68 | 326 | 2.0 | 5.0 | 0.00 | 0.00 | 0.00 | 62 | 1013.8 |
| 20260502035104 | 68 | 326 | 1.0 | 6.0 | 0.00 | 0.00 | 0.00 | 61 | 1013.5 |
| 20260502034103 | 69 | 325 | 5.0 | 7.0 | 0.00 | 0.00 | 0.00 | 60 | 1013.3 |
| 20260502033104 | 70 | 323 | 4.0 | 7.0 | 0.00 | 0.00 | 0.00 | 58 | 1013.2 |
| 20260502032604 | 70 | 291 | 2.0 | 3.0 | 0.00 | 0.00 | 0.00 | 58 | 1013.1 |
| 20260502032104 | 70 | 284 | 2.0 | 3.0 | 0.00 | 0.00 | 0.00 | 57 | 1013.0 |
| 20260502031604 | 70 | 284 | 2.0 | 5.0 | 0.00 | 0.00 | 0.00 | 57 | 1012.8 |
| 20260502031105 | 70 | 283 | 3.0 | 5.0 | 0.00 | 0.00 | 0.00 | 57 | 1012.8 |
| 20260502030606 | 71 | 273 | 3.0 | 3.0 | 0.00 | 0.00 | 0.00 | 56 | 1012.7 |
| 20260502030106 | 71 | 269 | 2.0 | 5.0 | 0.00 | 0.00 | 0.00 | 55 | 1012.7 |
| 20260502025104 | 72 | 267 | 3.0 | 5.0 | 0.00 | 0.00 | 0.00 | 52 | 1012.3 |
| 20260502024603 | 73 | 268 | 3.0 | 5.0 | 0.00 | 0.00 | 0.00 | 50 | 1012.2 |
| 20260502024104 | 73 | 267 | 3.0 | 5.0 | 0.00 | 0.00 | 0.00 | 49 | 1012.2 |
| 20260502023104 | 74 | 267 | 3.0 | 3.0 | 0.00 | 0.00 | 0.00 | 48 | 1012.2 |
| 20260502022603 | 74 | 266 | 2.0 | 6.0 | 0.00 | 0.00 | 0.00 | 47 | 1012.2 |
| 20260502022103 | 75 | 265 | 3.0 | 6.0 | 0.00 | 0.00 | 0.00 | 47 | 1012.2 |
| 20260502021604 | 75 | 258 | 3.0 | 5.0 | 0.00 | 0.00 | 0.00 | 46 | 1012.2 |
| 20260502021104 | 76 | 251 | 3.0 | 6.0 | 0.00 | 0.00 | 0.00 | 46 | 1012.2 |
| 20260502020604 | 76 | 273 | 4.0 | 6.0 | 0.00 | 0.00 | 0.00 | 44 | 1012.2 |
| 20260502020106 | 77 | 276 | 3.0 | 8.0 | 0.00 | 0.00 | 0.00 | 44 | 1012.1 |
| 20260502015604 | 77 | 275 | 5.0 | 8.0 | 0.00 | 0.00 | 0.00 | 43 | 1012.0 |
| 20260502015104 | 78 | 274 | 5.0 | 7.0 | 0.00 | 0.00 | 0.00 | 42 | 1011.9 |
| 20260502014604 | 78 | 273 | 4.0 | 7.0 | 0.00 | 0.00 | 0.00 | 41 | 1011.8 |
| 20260502014104 | 79 | 272 | 5.0 | 7.0 | 0.00 | 0.00 | 0.00 | 41 | 1011.7 |
| 20260502013604 | 79 | 276 | 5.0 | 8.0 | 0.00 | 0.00 | 0.00 | 40 | 1011.7 |